DW9677 Weather Reports


Display with metric or nautical units.
time (UTC)temp
F
wind
direction
speed
MPH
gust
MPH
rain 1hr
in
rain 24hr
in
rain mn
in
humidity
%
barometer
mb
20210619190248 74 46 0.0 0.0 0.00 0.00 0.00 72 1010.1
20210619184649 76 46 0.0 0.0 0.00 0.00 0.00 68 1010.1
20210619183150 77 46 0.0 0.0 0.00 0.00 0.00 65 1010.2
20210619181630 78 46 0.0 0.0 0.00 0.00 0.00 60 1010.1
20210619180157 79 46 0.0 1.0 0.00 0.00 0.00 58 1010.2
20210619174726 80 46 0.0 1.0 0.00 0.00 0.00 58 1010.2
20210619173356 80 46 0.0 1.0 0.00 0.00 0.00 57 1010.1
20210619171640 81 46 0.0 2.0 0.00 0.00 0.00 54 1010.2
20210619170057 81 46 0.0 1.0 0.00 0.00 0.00 55 1010.4
20210619164717 81 45 0.0 2.0 0.00 0.00 0.00 54 1010.5
20210619163120 82 46 0.0 1.0 0.00 0.00 0.00 53 1010.5
20210619161553 82 46 0.0 1.0 0.00 0.00 0.00 50 1010.6
20210619160124 83 46 0.0 2.0 0.00 0.00 0.00 50 1010.6
20210619154605 83 46 0.0 1.0 0.00 0.00 0.00 49 1010.8
20210619153130 84 46 0.0 1.0 0.00 0.00 0.00 47 1010.8
20210619151552 85 46 0.0 1.0 0.00 0.00 0.00 46 1011.0
20210619150049 87 46 0.0 1.0 0.00 0.00 0.00 48 1011.1
20210619144615 87 46 0.0 3.0 0.00 0.00 0.00 47 1011.2
20210619143048 88 46 0.0 2.0 0.00 0.00 0.00 45 1011.3
20210619141619 88 46 0.0 1.0 0.00 0.00 0.00 50 1011.4
20210619140141 88 46 0.0 3.0 0.00 0.00 0.00 46 1011.5
20210619134548 88 46 0.0 2.0 0.00 0.00 0.00 51 1011.7
20210619133102 89 46 0.0 2.0 0.00 0.00 0.00 50 1011.7
20210619131546 89 46 0.0 1.0 0.00 0.00 0.00 53 1011.8
20210619130057 89 46 0.0 2.0 0.00 0.00 0.00 49 1011.9
20210619124606 90 46 0.0 1.0 0.00 0.00 0.00 52 1012.2
20210619123029 90 46 0.0 1.0 0.00 0.00 0.00 47 1012.4
20210619121529 89 46 0.0 0.0 0.00 0.00 0.00 49 1012.7
20210619120046 89 46 0.0 1.0 0.00 0.00 0.00 51 1012.8
20210619114546 87 46 0.0 0.0 0.00 0.00 0.00 54 1013.0
20210619113009 87 46 0.0 0.0 0.00 0.00 0.00 53 1013.3
20210619111507 86 46 0.0 0.0 0.00 0.00 0.00 53 1013.5
20210619110002 85 46 0.0 1.0 0.00 0.00 0.00 56 1013.6
20210619104741 84 46 0.0 1.0 0.00 0.00 0.00 52 1014.0
20210619103219 83 46 0.0 2.0 0.00 0.00 0.00 56 1014.2
20210619101723 83 46 0.0 1.0 0.00 0.00 0.00 59 1014.4
20210619100153 82 45 0.0 1.0 0.00 0.00 0.00 59 1014.5
20210619094558 82 46 0.0 3.0 0.00 0.00 0.00 61 1014.6
20210619093139 81 46 0.0 2.0 0.00 0.00 0.00 61 1014.8
20210619091705 81 46 0.0 2.0 0.00 0.00 0.00 64 1014.8
20210619090053 80 46 0.0 2.0 0.00 0.00 0.00 65 1014.8
20210619084555 80 46 0.0 1.0 0.00 0.00 0.00 66 1015.0
20210619083102 78 45 0.0 1.0 0.00 0.00 0.00 66 1015.1
20210619081552 78 46 0.0 3.0 0.00 0.00 0.00 66 1015.4
20210619080105 76 46 0.0 1.0 0.00 0.00 0.00 70 1015.5
20210619074538 75 46 0.0 2.0 0.00 0.00 0.00 74 1015.6
20210619073040 74 46 0.0 0.0 0.00 0.00 0.00 79 1015.7
20210619071528 74 46 0.0 1.0 0.00 0.00 0.00 78 1015.8
20210619070051 74 46 0.0 1.0 0.00 0.00 0.00 77 1015.9
20210619064553 74 46 0.0 2.0 0.00 0.00 0.00 75 1015.7
20210619063043 73 46 0.0 1.0 0.00 0.00 0.00 79 1015.7
20210619061522 71 46 0.0 2.0 0.00 0.00 0.00 86 1015.6
20210619060016 68 46 0.0 1.0 0.00 0.00 0.00 89 1015.7
20210619054533 67 46 0.0 0.0 0.00 0.00 0.00 90 1015.7
20210619053000 66 46 0.0 0.0 0.00 0.00 0.00 90 1015.5
20210619051653 65 46 0.0 0.0 0.00 0.00 0.00 90 1015.2
20210619050118 63 46 0.0 0.0 0.00 0.00 0.00 89 1015.3
20210619044645 62 46 0.0 0.0 0.00 0.00 0.00 89 1015.3
20210619043340 61 46 0.0 0.0 0.00 0.00 0.00 89 1015.1
20210619041615 60 46 0.0 0.0 0.00 0.00 0.00 90 1014.9
20210619040144 60 46 0.0 0.0 0.00 0.00 0.00 90 1014.9
20210619034616 60 46 0.0 0.0 0.00 0.00 0.00 90 1014.5
20210619033144 60 46 0.0 0.0 0.00 0.00 0.00 90 1014.4
20210619031620 60 46 0.0 0.0 0.00 0.00 0.00 90 1014.3
20210619030101 60 46 0.0 0.0 0.00 0.00 0.00 90 1014.5
20210619024542 60 46 0.0 0.0 0.00 0.00 0.00 90 1014.5
20210619023044 61 46 0.0 0.0 0.00 0.00 0.00 90 1014.3
20210619021546 61 45 0.0 0.0 0.00 0.00 0.00 90 1014.3
20210619020039 61 46 0.0 0.0 0.00 0.00 0.00 90 1014.2
20210619014553 61 46 0.0 0.0 0.00 0.00 0.00 90 1014.1
20210619013034 61 46 0.0 0.0 0.00 0.00 0.00 90 1014.1
20210619011534 61 46 0.0 0.0 0.00 0.00 0.00 90 1014.1
20210619010037 61 46 0.0 0.0 0.00 0.00 0.00 90 1014.1
20210619004524 61 46 0.0 0.0 0.00 0.00 0.00 90 1013.7
20210619003030 61 46 0.0 0.0 0.00 0.00 0.00 90 1013.7
20210619001621 62 46 0.0 0.0 0.00 0.00 0.00 90 1013.7
20210619000051 62 45 0.0 0.0 0.00 0.00 0.00 90 1013.5
20210618234532 62 46 0.0 0.0 0.00 0.00 0.00 90 1013.5
20210618233025 62 46 0.0 0.0 0.00 0.00 0.00 90 1013.6
20210618231545 62 46 0.0 0.0 0.00 0.00 0.00 90 1013.8
20210618230026 62 46 0.0 0.0 0.00 0.00 0.00 90 1013.8
20210618224532 62 46 0.0 0.0 0.00 0.00 0.00 89 1013.8
20210618223016 62 46 0.0 0.0 0.00 0.00 0.00 89 1013.9
20210618221512 63 46 0.0 0.0 0.00 0.00 0.00 89 1013.5
20210618220026 63 46 0.0 0.0 0.00 0.00 0.00 88 1013.2
20210618214505 63 46 0.0 0.0 0.00 0.00 0.00 88 1013.0
20210618213015 64 46 0.0 0.0 0.00 0.00 0.00 87 1012.9
20210618210003 65 46 0.0 0.0 0.00 0.00 0.00 87 1013.2
20210618204625 65 46 0.0 0.0 0.00 0.00 0.00 86 1013.3
20210618203216 66 46 0.0 0.0 0.00 0.00 0.00 85 1013.1
20210618201652 67 46 0.0 0.0 0.00 0.00 0.00 84 1013.2
20210618194850 69 46 0.0 0.0 0.00 0.00 0.00 81 1013.1
20210618193132 70 45 0.0 0.0 0.00 0.00 0.00 79 1012.9
20210618191737 71 46 0.0 0.0 0.00 0.00 0.00 78 1012.6